Albany, OH

2:06 PM EST on February 27, 2017 (GMT -0500)
Ohio University

Weather History for KUNI - November, 2012

Change the Weather History Date:

Thursday, November 1, 2012

  Actual Average (KLHQ) Record (KLHQ)
Temperature  
Mean Temperature 44 °F -  
Max Temperature 52 °F 63 °F 79 °F (1974)
Min Temperature 37 °F 39 °F 21 °F (1988)
Degree Days  
Heating Degree Days 20    
Moisture  
Dew Point 31 °F    
Average Humidity 68    
Maximum Humidity 93    
Minimum Humidity 31    
Precipitation  
Precipitation 0.00 in - - ()
Sea Level Pressure  
Sea Level Pressure 29.79 in    
Wind  
Wind Speed 10 mph (WSW)    
Max Wind Speed 17 mph    
Max Gust Speed 25 mph    
Visibility 9 miles    
Events Rain    
Averages and records for this station are not official NWS values.
T = Trace of Precipitation, MM = Missing Value Source: NWS Daily Summary

Daily Weather History Graph

Daily Weather History Graph

Search for Another Location

Airport or City:

Trip Planner

Search our weather history database for the weather conditions in past years. The results will help you decide how hot, cold, wet, or windy it might be!

Date:

Astronomy

Nov. 01, 2012 Rise Set
Actual Time 7:57 AM EDT 6:27 PM EDT
Civil Twilight 7:29 AM EDT 6:55 PM EDT
Nautical Twilight 6:57 AM EDT 7:26 PM EDT
Astronomical Twilight 6:26 AM EDT 7:57 PM EDT
Moon 8:24 PM EDT (11/1) 10:27 AM EDT (11/1)
Length of Visible Light 11h 25m
Length of Day
10h 30m
Waning Gibbous, 93% of the Moon is Illuminated
Nov 1
Waning Gibbous
Nov 6
Last Quarter
Nov 13
New
Nov 20
First Quarter
Nov 28
Full

Hourly Weather History & Observations

Time (EDT) Temp. Windchill Dew Point Humidity Pressure Visibility Wind Dir Wind Speed Gust Speed Precip Events Conditions
12:15 AM 38.3 °F 31.9 °F 36.0 °F 91% 29.77 in 7.0 mi WSW 9.2 mph 16.1 mph N/A   Light Drizzle
12:35 AM 38.3 °F 31.4 °F 36.0 °F 91% 29.77 in 10.0 mi WSW 10.4 mph 16.1 mph N/A   Unknown
12:55 AM 38.3 °F 31.4 °F 35.8 °F 91% 29.77 in 10.0 mi WSW 10.4 mph - N/A   Unknown
1:15 AM 38.1 °F 30.7 °F 35.6 °F 91% 29.77 in 10.0 mi WSW 11.5 mph 17.3 mph N/A   Light Drizzle
1:35 AM 38.1 °F 31.7 °F 35.6 °F 91% 29.77 in 10.0 mi WSW 9.2 mph - N/A   Light Drizzle
1:55 AM 37.9 °F 32.1 °F 35.6 °F 91% 29.77 in 10.0 mi WSW 8.1 mph - N/A Rain Light Rain
2:15 AM 38.1 °F 31.7 °F 35.6 °F 91% 29.77 in 7.0 mi WSW 9.2 mph - N/A   Unknown
2:35 AM 37.9 °F 31.5 °F 35.6 °F 91% 29.77 in 10.0 mi WSW 9.2 mph - N/A   Light Drizzle
2:55 AM 38.1 °F 31.2 °F 35.6 °F 91% 29.77 in 10.0 mi WSW 10.4 mph - N/A   Light Drizzle
3:15 AM 37.9 °F 32.1 °F 35.6 °F 91% 29.77 in 10.0 mi WSW 8.1 mph - N/A Rain Light Rain
3:35 AM 38.1 °F 32.9 °F 35.8 °F 91% 29.77 in 7.0 mi WSW 6.9 mph - N/A   Light Drizzle
3:55 AM 38.1 °F 32.3 °F 35.8 °F 91% 29.77 in 7.0 mi WSW 8.1 mph - N/A Rain Rain
4:15 AM 38.1 °F 32.9 °F 36.0 °F 92% 29.76 in 7.0 mi WSW 6.9 mph - N/A   Light Drizzle
4:35 AM 37.9 °F 31.5 °F 36.0 °F 93% 29.76 in 7.0 mi WSW 9.2 mph - N/A Rain Light Rain
4:55 AM 38.1 °F 32.3 °F 36.3 °F 93% 29.76 in 7.0 mi WSW 8.1 mph - N/A   Unknown
5:15 AM 38.3 °F 32.5 °F 36.5 °F 93% 29.77 in 5.0 mi WSW 8.1 mph - N/A   Light Drizzle
5:35 AM 38.3 °F 33.2 °F 36.3 °F 93% 29.77 in 7.0 mi WSW 6.9 mph - N/A Rain Light Rain
5:55 AM 38.3 °F 33.2 °F 36.5 °F 93% 29.77 in 10.0 mi WSW 6.9 mph - N/A   Unknown
6:15 AM 38.5 °F 32.1 °F 36.5 °F 93% 29.77 in 7.0 mi WSW 9.2 mph - N/A   Unknown
6:35 AM 38.3 °F 32.5 °F 36.5 °F 93% 29.77 in 7.0 mi WSW 8.1 mph - N/A   Unknown
6:55 AM 38.5 °F 32.1 °F 36.5 °F 93% 29.78 in 7.0 mi WSW 9.2 mph - N/A Rain Light Rain
7:15 AM 38.3 °F 31.4 °F 36.5 °F 93% 29.78 in 5.0 mi WSW 10.4 mph - N/A   Light Drizzle
7:35 AM 38.5 °F 32.7 °F 36.5 °F 93% 29.79 in 7.0 mi WSW 8.1 mph - N/A   Unknown
7:55 AM 38.3 °F 33.9 °F 36.5 °F 93% 29.79 in 7.0 mi WSW 5.8 mph - N/A   Unknown
8:15 AM 38.3 °F 33.2 °F 36.5 °F 93% 29.79 in 5.0 mi SW 6.9 mph - N/A   Light Drizzle
8:35 AM 38.3 °F 33.2 °F 36.5 °F 93% 29.80 in 7.0 mi WSW 6.9 mph - N/A Rain Light Rain
8:55 AM 38.5 °F 33.4 °F 36.7 °F 93% 29.81 in 7.0 mi WSW 6.9 mph - N/A   Light Drizzle
9:15 AM 38.7 °F 33.6 °F 36.9 °F 93% 29.81 in 7.0 mi SW 6.9 mph - N/A Rain Light Rain
9:35 AM 39.2 °F 34.2 °F 36.9 °F 91% 29.81 in 7.0 mi WSW 6.9 mph - N/A   Unknown
9:55 AM 39.9 °F 34.5 °F 36.9 °F 89% 29.81 in 10.0 mi WSW 8.1 mph - N/A   Unknown
10:15 AM 40.3 °F 34.9 °F 37.0 °F 88% 29.81 in 10.0 mi WSW 8.1 mph - N/A   Unknown
10:35 AM 41.0 °F 35.2 °F 37.6 °F 88% 29.82 in 10.0 mi WSW 9.2 mph - N/A   Unknown
10:55 AM 41.9 °F 35.0 °F 37.6 °F 85% 29.82 in 10.0 mi WSW 12.7 mph 16.1 mph N/A   Unknown
11:15 AM 42.8 °F 36.6 °F 37.6 °F 82% 29.81 in 10.0 mi WSW 11.5 mph - N/A   Unknown
11:35 AM 44.8 °F 39.0 °F 37.8 °F 76% 29.81 in 10.0 mi WSW 11.5 mph 17.3 mph N/A   Unknown
11:55 AM 44.1 °F 39.0 °F 36.5 °F 75% 29.81 in 10.0 mi West 9.2 mph - N/A   Unknown
12:15 PM 45.7 °F 39.5 °F 36.9 °F 71% 29.81 in 10.0 mi West 13.8 mph 17.3 mph N/A   Unknown
12:35 PM 47.8 °F - 36.7 °F 65% 29.80 in 10.0 mi WSW 12.7 mph 18.4 mph N/A   Unknown
12:55 PM 47.8 °F - 34.5 °F 60% 29.80 in 10.0 mi West 15.0 mph 25.3 mph N/A   Unknown
1:15 PM 46.6 °F - 32.4 °F 58% 29.79 in 10.0 mi West 15.0 mph 19.6 mph N/A   Unknown
1:55 PM 49.8 °F - 30.7 °F 48% 29.77 in 10.0 mi West 17.3 mph 25.3 mph N/A   Unknown
2:15 PM 50.2 °F - 29.8 °F 46% 29.77 in 10.0 mi West 16.1 mph 21.9 mph N/A   Unknown
2:35 PM 50.7 °F - 28.6 °F 42% 29.77 in 10.0 mi West 17.3 mph 21.9 mph N/A   Unknown
2:55 PM 50.9 °F - 28.4 °F 42% 29.76 in 10.0 mi WSW 15.0 mph 19.6 mph N/A   Unknown
3:15 PM 52.0 °F - 28.8 °F 41% 29.76 in 10.0 mi WNW 16.1 mph 20.7 mph N/A   Unknown
3:35 PM 51.3 °F - 25.5 °F 37% 29.76 in 10.0 mi West 13.8 mph 19.6 mph N/A   Unknown
3:55 PM 52.0 °F - 24.4 °F 34% 29.76 in 10.0 mi West 15.0 mph 20.7 mph N/A   Unknown
4:15 PM 51.6 °F - 22.6 °F 32% 29.76 in 10.0 mi West 16.1 mph 24.2 mph N/A   Unknown
4:55 PM 51.8 °F - 22.8 °F 32% 29.77 in 10.0 mi West 17.3 mph 23.0 mph N/A   Unknown
5:15 PM 51.1 °F - 21.2 °F 31% 29.77 in 10.0 mi West 16.1 mph - N/A   Unknown
5:55 PM 48.4 °F - 22.1 °F 36% 29.78 in 10.0 mi West 11.5 mph - N/A   Unknown
6:15 PM 47.7 °F - 22.5 °F 37% 29.79 in 10.0 mi West 9.2 mph - N/A   Unknown
6:35 PM 46.9 °F - 25.0 °F 42% 29.79 in 10.0 mi WSW 4.6 mph - N/A   Unknown
6:55 PM 47.3 °F - 22.5 °F 38% 29.79 in 10.0 mi West 8.1 mph - N/A   Unknown
7:15 PM 47.1 °F - 22.6 °F 38% 29.79 in 10.0 mi West 8.1 mph - N/A   Unknown
7:35 PM 46.0 °F 41.9 °F 22.8 °F 40% 29.81 in 10.0 mi West 8.1 mph - N/A   Unknown
7:55 PM 44.8 °F 40.4 °F 21.9 °F 40% 29.81 in 10.0 mi WSW 8.1 mph - N/A   Unknown
8:15 PM 43.7 °F 39.7 °F 22.3 °F 43% 29.82 in 10.0 mi West 6.9 mph - N/A   Unknown
8:35 PM 44.8 °F 41.0 °F 23.4 °F 43% 29.82 in 10.0 mi West 6.9 mph - N/A   Unknown
8:55 PM 45.7 °F 41.5 °F 23.7 °F 42% 29.82 in 10.0 mi West 8.1 mph - N/A   Unknown
9:15 PM 46.0 °F 41.9 °F 23.2 °F 41% 29.82 in 10.0 mi West 8.1 mph - N/A   Unknown
9:35 PM 46.4 °F 41.9 °F 23.2 °F 40% 29.82 in 10.0 mi WSW 9.2 mph - N/A   Unknown
9:55 PM 45.5 °F 41.8 °F 24.4 °F 44% 29.82 in 10.0 mi West 6.9 mph - N/A   Unknown
10:15 PM 42.6 °F 39.9 °F 24.8 °F 49% 29.83 in 10.0 mi WSW 4.6 mph - N/A   Unknown
10:35 PM 43.3 °F 39.9 °F 23.9 °F 46% 29.84 in 10.0 mi WSW 5.8 mph - N/A   Unknown
10:55 PM 43.0 °F 40.3 °F 25.5 °F 50% 29.83 in 10.0 mi WSW 4.6 mph - N/A   Unknown
11:15 PM 42.8 °F 40.1 °F 26.6 °F 53% 29.83 in 10.0 mi West 4.6 mph - N/A   Unknown
11:35 PM 43.0 °F 40.3 °F 25.7 °F 51% 29.83 in 10.0 mi WSW 4.6 mph - N/A   Unknown
11:55 PM 43.0 °F 40.3 °F 26.2 °F 52% 29.82 in 10.0 mi WSW 4.6 mph - N/A   Unknown